Biloxi, MS

7:59 PM CDT on September 26, 2016 (GMT -0500)
Keesler Air Force Base

Weather History for KBIX - November, 2011

Change the Weather History Date:

Wednesday, November 30, 2011

  Actual Average Record
Temperature  
Mean Temperature 48 °F -  
Max Temperature 56 °F 66 °F 80 °F (1967)
Min Temperature 38 °F 48 °F 26 °F (1976)
Degree Days  
Heating Degree Days 18    
Moisture  
Dew Point 36 °F    
Average Humidity 71    
Maximum Humidity 93    
Minimum Humidity 38    
Precipitation  
Precipitation 0.00 in - - ()
Sea Level Pressure  
Sea Level Pressure 30.19 in    
Wind  
Wind Speed 4 mph (North)    
Max Wind Speed 10 mph    
Max Gust Speed -    
Visibility 10 miles    
Events      
Averages and records for this station are not official NWS values.
T = Trace of Precipitation, MM = Missing Value Source: NWS Daily Summary

Daily Weather History Graph

Daily Weather History Graph

Search for Another Location

Airport or City:

Trip Planner

Search our weather history database for the weather conditions in past years. The results will help you decide how hot, cold, wet, or windy it might be!

Date:

Astronomy

Nov. 30, 2011 Rise Set
Actual Time 6:33 AM CST 4:54 PM CST
Civil Twilight 6:07 AM CST 5:20 PM CST
Nautical Twilight 5:38 AM CST 5:50 PM CST
Astronomical Twilight 5:09 AM CST 6:19 PM CST
Moon 11:03 AM CST (11/30) 10:37 PM CST (11/30)
Length of Visible Light 11h 13m
Length of Day
10h 20m
Waxing Crescent, 34% of the Moon is Illuminated
Nov 30
Waxing Crescent
Dec 2
First Quarter
Dec 10
Full
Dec 17
Last Quarter
Dec 24
New

Hourly Weather History & Observations

Time (CST) Temp. Windchill Dew Point Humidity Pressure Visibility Wind Dir Wind Speed Gust Speed Precip Events Conditions
12:55 AM 41.2 °F - 38.5 °F 90% 30.16 in 10.0 mi Calm Calm - N/A   Clear
1:55 AM 41.4 °F - 38.7 °F 90% 30.17 in 10.0 mi Calm Calm - N/A   Clear
2:55 AM 41.0 °F 39.0 °F 38.3 °F 90% 30.17 in 10.0 mi Variable 3.5 mph - N/A   Clear
3:55 AM 40.5 °F - 37.9 °F 91% 30.17 in 10.0 mi Calm Calm - N/A   Clear
4:55 AM 39.7 °F 37.6 °F 37.9 °F 93% 30.18 in 10.0 mi Variable 3.5 mph - N/A   Clear
5:55 AM 39.2 °F - 37.4 °F 93% 30.19 in 10.0 mi Calm Calm - N/A   Clear
6:55 AM 39.4 °F - 37.6 °F 93% 30.21 in 10.0 mi Calm Calm - N/A   Clear
7:55 AM 40.6 °F 35.4 °F 37.6 °F 89% 30.22 in 10.0 mi North 8.1 mph - N/A   Clear
8:55 AM 44.8 °F 41.6 °F 38.3 °F 78% 30.23 in 10.0 mi North 5.8 mph - N/A   Clear
9:55 AM 48.6 °F - 37.0 °F 64% 30.23 in 10.0 mi NNW 8.1 mph - N/A   Clear
10:55 AM 51.4 °F - 33.3 °F 50% 30.22 in 10.0 mi North 10.4 mph - N/A   Clear
11:55 AM 53.4 °F - 32.2 °F 44% 30.19 in 10.0 mi North 10.4 mph - N/A   Clear
12:55 PM 55.6 °F - 31.3 °F 40% 30.16 in 10.0 mi NNW 10.4 mph - N/A   Clear
1:55 PM 56.8 °F - 31.6 °F 38% 30.14 in 10.0 mi NW 10.4 mph - N/A   Clear
2:55 PM 56.7 °F - 32.2 °F 40% 30.14 in 10.0 mi North 10.4 mph - N/A   Clear
3:55 PM 56.3 °F - 33.1 °F 41% 30.15 in 10.0 mi North 6.9 mph - N/A   Clear
4:55 PM 53.4 °F - 33.1 °F 46% 30.16 in 10.0 mi North 5.8 mph - N/A   Clear
5:55 PM 50.4 °F - 34.5 °F 55% 30.18 in 10.0 mi North 5.8 mph - N/A   Clear
6:55 PM 46.6 °F - 36.0 °F 67% 30.19 in 10.0 mi NNE 3.5 mph - N/A   Clear
7:55 PM 43.7 °F - 37.4 °F 78% 30.21 in 10.0 mi Calm Calm - N/A   Clear
8:55 PM 41.5 °F 39.6 °F 36.1 °F 81% 30.22 in 10.0 mi NNE 3.5 mph - N/A   Clear
9:55 PM 40.6 °F 38.6 °F 36.0 °F 83% 30.22 in 10.0 mi NNE 3.5 mph - N/A   Clear
10:55 PM 41.2 °F - 36.0 °F 82% 30.22 in 10.0 mi Calm Calm - N/A   Clear
11:55 PM 38.8 °F 35.4 °F 34.3 °F 84% 30.22 in 10.0 mi NNE 4.6 mph - N/A   Clear